TimeAKDT,TemperatureF,Dew PointF,Humidity,Sea Level PressureIn,VisibilityMPH,Wind Direction,Wind SpeedMPH,Gust SpeedMPH,PrecipitationIn,Events,Conditions,WindDirDegrees,DateUTC
12:52 AM,69.1,51.1,53,29.66,10.0,NNW,3.5,-,N/A,,Mostly Cloudy,340,2013-06-25 08:52:00
1:52 AM,64.0,55.9,75,29.68,8.0,Calm,Calm,-,0.01,Rain,Light Rain,0,2013-06-25 09:52:00
2:52 AM,66.0,54.0,65,29.67,10.0,NNE,5.8,-,0.00,,Mostly Cloudy,30,2013-06-25 10:52:00
3:52 AM,66.9,54.0,63,29.67,10.0,ENE,4.6,-,0.00,,Mostly Cloudy,60,2013-06-25 11:52:00
4:52 AM,66.9,57.0,70,29.68,10.0,Calm,Calm,-,N/A,,Partly Cloudy,0,2013-06-25 12:52:00
5:52 AM,66.9,55.9,68,29.69,10.0,Calm,Calm,-,N/A,,Scattered Clouds,0,2013-06-25 13:52:00
6:52 AM,66.0,57.0,73,29.69,10.0,Calm,Calm,-,N/A,,Mostly Cloudy,0,2013-06-25 14:52:00
7:52 AM,70.0,55.9,61,29.69,10.0,Calm,Calm,-,N/A,,Clear,0,2013-06-25 15:52:00
8:52 AM,73.0,57.0,57,29.69,10.0,Calm,Calm,-,N/A,,Clear,0,2013-06-25 16:52:00
9:52 AM,73.9,59.0,59,29.69,10.0,ESE,9.2,-,N/A,,Clear,120,2013-06-25 17:52:00
10:52 AM,75.0,57.9,55,29.68,10.0,ESE,11.5,-,N/A,,Clear,120,2013-06-25 18:52:00
11:52 AM,78.1,55.9,46,29.68,9.0,ESE,11.5,-,N/A,,Clear,120,2013-06-25 19:52:00
12:52 PM,79.0,55.0,44,29.68,10.0,ESE,11.5,-,N/A,,Clear,120,2013-06-25 20:52:00
1:52 PM,81.0,55.0,41,29.67,10.0,ESE,11.5,-,N/A,,Partly Cloudy,120,2013-06-25 21:52:00
2:52 PM,81.0,55.9,42,29.66,10.0,ESE,11.5,-,N/A,,Scattered Clouds,120,2013-06-25 22:52:00
3:52 PM,81.0,57.0,44,29.65,10.0,ESE,11.5,-,N/A,,Scattered Clouds,120,2013-06-25 23:52:00
4:52 PM,84.0,54.0,35,29.64,10.0,ESE,10.4,-,N/A,,Scattered Clouds,120,2013-06-26 00:52:00
5:52 PM,86.0,52.0,31,29.64,10.0,ESE,12.7,-,N/A,,Scattered Clouds,120,2013-06-26 01:52:00
6:52 PM,86.0,51.1,30,29.63,10.0,East,8.1,-,N/A,,Mostly Cloudy,90,2013-06-26 02:52:00
7:52 PM,86.0,50.0,29,29.62,10.0,East,12.7,16.1,N/A,,Mostly Cloudy,90,2013-06-26 03:52:00
8:52 PM,84.0,51.1,32,29.63,10.0,East,12.7,19.6,N/A,,Scattered Clouds,90,2013-06-26 04:52:00
9:52 PM,82.0,51.1,34,29.64,10.0,East,11.5,-,N/A,,Clear,90,2013-06-26 05:52:00
10:52 PM,80.1,51.1,36,29.65,10.0,East,9.2,-,N/A,,Clear,80,2013-06-26 06:52:00
11:52 PM,77.0,51.1,40,29.66,10.0,East,3.5,-,N/A,,Clear,80,2013-06-26 07:52:00